Location: Montr�al
(45.5000°N, 73.5830°W)
Time: 05:25:50
(UTC-04:00)

ISS - Visible Passes

Search period start: 29 April 2017 00:00
Search period end: 09 May 2017 00:00
Orbit: 401 x 409 km, 51.6° (Epoch: 29 April)

Date Brightness Start Highest point End Pass type
(mag) Time Alt. Az. Time Alt. Az. Time Alt. Az.
06 May -2.4 04:55:48 10° SSW 04:58:43 30° SE 05:01:38 10° ENE visible
07 May -1.6 04:05:03 12° S 04:06:47 18° SE 04:09:04 10° E visible
08 May -3.6 04:47:36 10° SW 04:50:50 66° SSE 04:54:05 10° ENE visible
